| time (UTC) | temp C | wind direction | speed KPH | gust KPH | rain 1hr cm | rain 24hr cm | rain mn cm | humidity % | barometer mb |
| 20260507050056 | 13 | 283 | 0.0 | 0.0 | 0.00 | 0.00 | 0.00 | 77 | 1011.6 |
| 20260507044554 | 13 | 284 | 0.0 | 0.0 | 0.00 | 0.00 | 0.00 | 79 | 1011.3 |
| 20260507043048 | 13 | 283 | 0.0 | 1.6 | 0.00 | 0.00 | 0.00 | 81 | 1010.7 |
| 20260507041548 | 13 | 285 | 0.0 | 1.6 | 0.00 | 0.00 | 0.00 | 81 | 1010.6 |
| 20260507040044 | 14 | 284 | 0.0 | 4.8 | 0.00 | 0.00 | 0.00 | 80 | 1010.6 |
| 20260507034542 | 15 | 306 | 0.0 | 3.2 | 0.00 | 0.00 | 0.00 | 81 | 1010.6 |
| 20260507033042 | 15 | 271 | 0.0 | 0.0 | 0.00 | 0.00 | 0.00 | 81 | 1010.8 |
| 20260507031539 | 15 | 271 | 0.0 | 6.4 | 0.00 | 0.00 | 0.00 | 79 | 1010.3 |
| 20260507030041 | 16 | 270 | 0.0 | 0.0 | 0.00 | 0.00 | 0.00 | 77 | 1010.1 |
| 20260507024540 | 16 | 263 | 0.0 | 4.8 | 0.00 | 0.00 | 0.00 | 77 | 1010.5 |
| 20260507023033 | 16 | 263 | 1.6 | 4.8 | 0.00 | 0.00 | 0.00 | 75 | 1009.8 |
| 20260507021531 | 17 | 263 | 1.6 | 9.7 | 0.00 | 0.00 | 0.00 | 75 | 1009.8 |
| 20260507020032 | 17 | 263 | 0.0 | 1.6 | 0.00 | 0.00 | 0.00 | 75 | 1009.8 |
| 20260507014544 | 17 | 171 | 0.0 | 0.0 | 0.00 | 0.00 | 0.00 | 74 | 1009.9 |
| 20260507013030 | 18 | 171 | 0.0 | 0.0 | 0.00 | 0.00 | 0.00 | 76 | 1010.1 |
| 20260507011533 | 18 | 171 | 0.0 | 0.0 | 0.00 | 0.00 | 0.00 | 78 | 1010.0 |
| 20260507010033 | 18 | 171 | 0.0 | 0.0 | 0.00 | 0.00 | 0.00 | 81 | 1010.0 |
| 20260507004528 | 18 | 171 | 0.0 | 0.0 | 0.00 | 0.00 | 0.00 | 82 | 1009.4 |
| 20260507003028 | 18 | 171 | 0.0 | 0.0 | 0.00 | 0.00 | 0.00 | 82 | 1009.3 |
| 20260507001529 | 18 | 171 | 0.0 | 0.0 | 0.00 | 0.00 | 0.00 | 82 | 1009.2 |
| 20260507000035 | 19 | 171 | 0.0 | 0.0 | 0.00 | 0.00 | 0.00 | 81 | 1008.9 |
| 20260506234526 | 19 | 171 | 0.0 | 0.0 | 0.00 | 0.00 | 0.00 | 81 | 1008.8 |
| 20260506233026 | 19 | 171 | 0.0 | 1.6 | 0.00 | 0.00 | 0.00 | 81 | 1008.6 |
| 20260506231526 | 19 | 171 | 0.0 | 0.0 | 0.00 | 0.00 | 0.00 | 81 | 1008.6 |
| 20260506230026 | 20 | 171 | 0.0 | 0.0 | 0.00 | 0.00 | 0.00 | 81 | 1008.8 |
| 20260506224525 | 20 | 171 | 0.0 | 0.0 | 0.00 | 0.00 | 0.00 | 81 | 1008.6 |
| 20260506223024 | 20 | 171 | 0.0 | 0.0 | 0.00 | 0.00 | 0.00 | 81 | 1008.4 |
| 20260506221524 | 20 | 171 | 0.0 | 1.6 | 0.00 | 0.00 | 0.00 | 80 | 1008.6 |
| 20260506220024 | 20 | 184 | 0.0 | 0.0 | 0.00 | 0.00 | 0.00 | 80 | 1008.6 |
| 20260506214523 | 20 | 171 | 0.0 | 0.0 | 0.00 | 0.00 | 0.00 | 80 | 1008.4 |
| 20260506213023 | 20 | 166 | 0.0 | 0.0 | 0.00 | 0.00 | 0.00 | 80 | 1008.2 |
| 20260506211522 | 20 | 157 | 0.0 | 0.0 | 0.00 | 0.00 | 0.00 | 80 | 1008.3 |
| 20260506210020 | 19 | 170 | 0.0 | 0.0 | 0.00 | 0.00 | 0.00 | 81 | 1008.0 |
| 20260506204524 | 19 | 170 | 0.0 | 0.0 | 0.00 | 0.00 | 0.00 | 81 | 1008.1 |
| 20260506203020 | 19 | 161 | 0.0 | 0.0 | 0.00 | 0.00 | 0.00 | 81 | 1008.1 |
| 20260506201519 | 19 | 178 | 0.0 | 0.0 | 0.00 | 0.00 | 0.00 | 80 | 1008.1 |
| 20260506200017 | 19 | 235 | 0.0 | 0.0 | 0.00 | 0.00 | 0.00 | 80 | 1008.2 |
| 20260506194518 | 19 | 167 | 0.0 | 11.3 | 0.00 | 0.00 | 0.00 | 81 | 1008.3 |
| 20260506193015 | 19 | 170 | 0.0 | 0.0 | 0.00 | 0.00 | 0.00 | 81 | 1008.4 |
| 20260506191513 | 18 | 182 | 0.0 | 1.6 | 0.00 | 0.00 | 0.00 | 81 | 1008.6 |
| 20260506190011 | 18 | 215 | 0.0 | 0.0 | 0.00 | 0.00 | 0.00 | 79 | 1008.7 |
| 20260506184511 | 17 | 204 | 0.0 | 1.6 | 0.00 | 0.00 | 0.00 | 77 | 1008.7 |
| 20260506183011 | 17 | 228 | 0.0 | 1.6 | 0.00 | 0.00 | 0.00 | 74 | 1008.8 |
| 20260506181510 | 17 | 198 | 0.0 | 1.6 | 0.00 | 0.00 | 0.00 | 70 | 1008.9 |
| 20260506180009 | 16 | 194 | 0.0 | 1.6 | 0.00 | 0.00 | 0.00 | 67 | 1009.0 |
| 20260506174508 | 16 | 146 | 0.0 | 1.6 | 0.00 | 0.00 | 0.00 | 61 | 1009.0 |
| 20260506173011 | 16 | 159 | 4.8 | 17.7 | 0.00 | 0.00 | 0.00 | 57 | 1009.0 |
| 20260506171510 | 16 | 158 | 0.0 | 1.6 | 0.00 | 0.00 | 0.00 | 56 | 1009.0 |
| 20260506170006 | 16 | 157 | 0.0 | 1.6 | 0.00 | 0.00 | 0.00 | 56 | 1009.1 |
| 20260506164506 | 16 | 202 | 0.0 | 16.1 | 0.00 | 0.00 | 0.00 | 56 | 1009.2 |
| 20260506163009 | 15 | 152 | 0.0 | 16.1 | 0.00 | 0.00 | 0.00 | 57 | 1009.3 |
| 20260506161503 | 15 | 170 | 0.0 | 1.6 | 0.00 | 0.00 | 0.00 | 57 | 1009.3 |
| 20260506160005 | 16 | 215 | 0.0 | 20.9 | 0.00 | 0.00 | 0.00 | 55 | 1009.3 |
| 20260506154628 | 15 | 181 | 0.0 | 1.6 | 0.00 | 0.00 | 0.00 | 57 | 1009.1 |
| 20260506153110 | 16 | 150 | 0.0 | 1.6 | 0.00 | 0.00 | 0.00 | 58 | 1009.7 |
| 20260506151600 | 16 | 156 | 0.0 | 16.1 | 0.00 | 0.00 | 0.00 | 60 | 1009.9 |
| 20260506150100 | 16 | 160 | 0.0 | 4.8 | 0.00 | 0.00 | 0.00 | 63 | 1010.0 |
| 20260506144555 | 16 | 194 | 0.0 | 1.6 | 0.00 | 0.00 | 0.00 | 64 | 1010.2 |
| 20260506143105 | 16 | 180 | 0.0 | 11.3 | 0.00 | 0.00 | 0.00 | 66 | 1010.0 |
| 20260506141554 | 16 | 154 | 0.0 | 0.0 | 0.00 | 0.00 | 0.00 | 70 | 1010.0 |
| 20260506140057 | 16 | 166 | 0.0 | 0.0 | 0.00 | 0.00 | 0.00 | 75 | 1010.5 |
| 20260506134553 | 16 | 170 | 0.0 | 0.0 | 0.00 | 0.00 | 0.00 | 78 | 1010.4 |
| 20260506133053 | 16 | 169 | 0.0 | 1.6 | 0.00 | 0.00 | 0.00 | 80 | 1010.2 |
| 20260506131552 | 16 | 193 | 0.0 | 1.6 | 0.00 | 0.00 | 0.00 | 81 | 1010.1 |
| 20260506130051 | 16 | 162 | 0.0 | 0.0 | 0.00 | 0.00 | 0.00 | 82 | 1010.0 |
| 20260506124551 | 16 | 158 | 0.0 | 0.0 | 0.00 | 0.00 | 0.00 | 82 | 1010.0 |
| 20260506123051 | 17 | 155 | 0.0 | 1.6 | 0.00 | 0.00 | 0.00 | 81 | 1010.3 |
| 20260506121550 | 17 | 182 | 0.0 | 0.0 | 0.00 | 0.00 | 0.00 | 80 | 1010.5 |
| 20260506120056 | 17 | 181 | 0.0 | 0.0 | 0.00 | 0.00 | 0.00 | 79 | 1010.5 |
| 20260506114557 | 17 | 173 | 0.0 | 1.6 | 0.00 | 0.00 | 0.00 | 80 | 1009.9 |
| 20260506113048 | 17 | 161 | 0.0 | 1.6 | 0.00 | 0.00 | 0.00 | 81 | 1010.0 |
| 20260506111548 | 16 | 155 | 0.0 | 1.6 | 0.00 | 0.00 | 0.00 | 81 | 1009.9 |
| 20260506110055 | 16 | 175 | 0.0 | 1.6 | 0.00 | 0.00 | 0.00 | 81 | 1009.6 |
| 20260506104547 | 16 | 191 | 0.0 | 0.0 | 0.00 | 0.00 | 0.00 | 82 | 1009.6 |
| 20260506103047 | 16 | 119 | 0.0 | 0.0 | 0.00 | 0.00 | 0.00 | 82 | 1009.6 |
| 20260506101546 | 16 | 165 | 0.0 | 1.6 | 0.00 | 0.00 | 0.00 | 82 | 1009.7 |
| 20260506100047 | 16 | 174 | 0.0 | 0.0 | 0.00 | 0.00 | 0.00 | 82 | 1009.7 |
| 20260506094601 | 16 | 164 | 0.0 | 0.0 | 0.00 | 0.00 | 0.00 | 81 | 1009.7 |
| 20260506093046 | 16 | 161 | 0.0 | 0.0 | 0.00 | 0.00 | 0.00 | 81 | 1009.6 |
| 20260506091540 | 16 | 165 | 0.0 | 0.0 | 0.00 | 0.00 | 0.00 | 81 | 1009.7 |
| 20260506090038 | 16 | 163 | 0.0 | 0.0 | 0.00 | 0.00 | 0.00 | 81 | 1009.8 |
| 20260506084538 | 17 | 154 | 0.0 | 0.0 | 0.00 | 0.00 | 0.00 | 81 | 1009.8 |
| 20260506083036 | 17 | 163 | 0.0 | 0.0 | 0.00 | 0.00 | 0.00 | 80 | 1009.8 |
| 20260506081536 | 17 | 166 | 0.0 | 0.0 | 0.00 | 0.00 | 0.00 | 79 | 1009.8 |
| 20260506073026 | 18 | 174 | 0.0 | 1.6 | 0.00 | 0.00 | 0.00 | 72 | 1009.9 |
| 20260506071530 | 18 | 175 | 0.0 | 0.0 | 0.00 | 0.00 | 0.00 | 70 | 1010.1 |
| 20260506061529 | 20 | 176 | 0.0 | 0.0 | 0.00 | 0.00 | 0.00 | 61 | 1010.3 |